Location: Vancouver
(49.2500°N, 123.1330°W)
Time: 18:26:42
(UTC-07:00)

Vanguard 2 Rocket - Visible Passes

Search period start: 28 March 2017 00:00
Search period end: 07 April 2017 00:00
Orbit: 554 x 3328 km, 32.9° (Epoch: 27 March)

Date Brightness Start Highest point End Pass type
(mag) Time Alt. Az. Time Alt. Az. Time Alt. Az.
28 Mar 9.8 02:26:29 10° ESE 02:26:29 10° ESE 02:26:30 10° ESE visible
28 Mar 8.7 04:32:18 25° SSW 04:34:35 29° SSE 04:44:21 10° ESE visible
29 Mar 8.9 03:36:17 23° SSE 03:36:17 23° SSE 03:42:50 10° ESE visible
29 Mar 9.0 05:42:06 14° SW 05:48:13 29° S 05:59:11 10° SE visible
30 Mar 9.6 02:40:18 12° ESE 02:40:18 12° ESE 02:41:19 10° ESE visible
30 Mar 8.6 04:46:06 23° SSW 04:48:41 27° S 04:57:56 10° SE visible
31 Mar 8.8 03:50:09 23° SSE 03:50:09 23° SSE 03:56:44 10° ESE visible
31 Mar 9.1 05:55:58 10° WSW 06:02:24 24° S 06:11:59 10° SE visible
01 Apr 9.4 02:54:13 13° SE 02:54:13 13° SE 02:55:37 10° ESE visible
01 Apr 8.7 05:00:03 20° SSW 05:02:52 24° S 05:11:09 10° SE visible
02 Apr 8.8 04:04:09 21° S 04:04:09 21° S 04:10:19 10° SE visible
02 Apr 9.2 06:11:10 10° SW 06:16:38 18° SSW 06:24:02 10° SSE visible
03 Apr 9.4 03:08:18 13° SE 03:08:18 13° SE 03:09:33 10° SE visible
03 Apr 8.9 05:14:08 15° SW 05:17:07 19° S 05:23:49 10° SSE visible
04 Apr 8.9 04:18:20 18° S 04:18:20 18° S 04:23:27 10° SE visible
05 Apr 9.4 03:22:35 11° SE 03:22:35 11° SE 03:23:05 10° SE visible
05 Apr 9.1 05:28:26 10° SW 05:31:25 13° SSW 05:35:19 10° S visible
06 Apr 9.1 04:32:44 13° S 04:32:44 13° S 04:35:44 10° SSE visible
